Preview of NWS' New Version of Forecast
This preview is not operational and should not be used for support decisions.

Regional Weather Roundup (RWR)

Issued by Gray - Portland, ME (GYX)

                            
364 
ASUS41 KGYX 250210
RWRGYX
WEATHER ROUNDUP FOR MAINE AND NEW HAMPSHIRE
NATIONAL WEATHER SERVICE GRAY ME
1000 PM EDT THU MAY 24 2018

MEZ002-005-006-010-012-015-018-020-021-024-026-027-029-250300-
MAINE
  
CITY           SKY/WX    TMP DP  RH WIND       PRES   REMARKS
PORTLAND       FAIR      54  48  80 SW6       30.03F                  
SANFORD        FAIR      48  46  93 CALM      30.04S                  
BAR HARBOR     FAIR      48  44  86 SW10      30.04F                  
WISCASSET      FAIR      51  48  89 SW3       30.05F                  
ROCKLAND       FAIR      50  46  86 S9        30.04F                  
FRYEBURG       FAIR      52  45  77 S3        30.01S                  
LEWISTONAUBURN FAIR      50  47  89 SE5       30.02F                  
AUGUSTA        FAIR      50  45  83 S6        30.02F                  
WATERVILLE     FAIR      51  45  79 VRB7      29.99F                  
BANGOR         FAIR      50  44  80 S9        30.00F                  
GREENVILLE       N/A     58  34  40 VRB3      29.94S                  
MILLINOCKET    CLOUDY    55  43  63 S7        29.96R                  
HOULTON        LGT RAIN  54  40  59 SW8       29.92R                  
PRESQUE ISLE   LGT RAIN  55  34  45 S6        29.90F                  
FRENCHVILLE    LGT RAIN  55  31  39 S3        29.86F                  
CARIBOU        LGT RAIN  55  32  41 SW5       29.88F                  
$$

NHZ002-005-008-009-011-012-014-250300-
NEW HAMPSHIRE
  
CITY           SKY/WX    TMP DP  RH WIND       PRES   REMARKS
PORTSMOUTH     PTCLDY    55  49  80 S5        30.02F                  
ROCHESTER      FAIR      53  50  89 CALM      30.03S                  
NASHUA         FAIR      62  52  69 VRB6      30.05R                  
MANCHESTER     FAIR      65  50  58 S9        30.03R                  
CONCORD        FAIR      58  44  60 SE3       30.03R                  
LACONIA        FAIR      56  44  64 CALM      30.02S                  
PLYMOUTH       FAIR      51  46  82 CALM      30.02S                  
BERLIN         FAIR      49  41  74 CALM      30.00S                  
WHITEFIELD     FAIR      49  43  80 CALM      30.02S                  
JAFFREY        FAIR      55  48  77 CALM      30.06S                  
KEENE          FAIR      55  44  66 CALM      30.05R                  
LEBANON        FAIR      54  42  64 CALM      30.01S                  
MT WASHINGTON  PTCLDY    43  25  49 W49G60      N/A                   
$$

VTZ005-007-008-250300-
VERMONT
  
CITY           SKY/WX    TMP DP  RH WIND       PRES   REMARKS
ST JOHNSBURY     N/A     54  44  69 MISG      30.00R                  
MONTPELIER     FAIR      51  42  71 CALM      30.05S                  
BURLINGTON     FAIR      61  44  53 SE5       29.98S                  
$$

MAZ007-012-024-CTZ003-RIZ002-NYZ038-NYZ072-250300-
SOUTHERN NEW ENGLAND AND NY
  
CITY           SKY/WX    TMP DP  RH WIND       PRES   REMARKS
BOSTON         FAIR      57  47  69 SW16      30.07F                  
WORCESTER      FAIR      56  49  77 SW12      30.08S                  
NANTUCKET      FAIR      50  50 100 S7        30.14R                  
PROVIDENCE     FAIR      53  50  89 S8        30.13R                  
HARTFORD       FAIR      62  54  74 S9        30.08R                  
ALBANY         FAIR      67  44  43 SW6       30.05R                  
NEW YORK CITY  FAIR      75  41  29 S10G17    30.08R                  
$$

ANZ081-ANZ082-ANZ150-NHZ014-MEZ023>029-250300-
COASTAL MARINE OBSERVATIONS
  
STATION/POSITION TIME  TEMP    WIND        PRES    WAVE
                       AIR SEA DIR/SP/G            HT/PER
                 (UTC) (F)     (DEG/KT/KT) (MB)    (FT/S)
MOUNT DESERT ROC 0200   48     190/ 18/ 20 1017.5F
MATINICUS ROCK   0100   49     210/ 16/ 17 1017.6S
ISLE OF SHOALS   0100   56     190/ 18/ 20 1016.8F
JEFFREYS LEDGE   0136      53                N/A     4/ 5
$$

.............KEY..............
   WCI - WIND CHILL
   TC  - TEMPERATURE IN CELSIUS
   VSB - VISIBILITY IN MILES
   HX  - HEAT INDEX
   FAIR- INDICATES FEW OR NO CLOUDS BELOW 12,000 FT, WITH NO 
         SIGNIFICANT WEATHER AND/OR OBSTRUCTIONS TO VISIBILITY.